Metropolis, IL

4:08 PM CDT on October 18, 2017 (GMT -0500)
Metropolis

Weather History for KM30 - February, 2013

Change the Weather History Date:

Wednesday, February 13, 2013

  Actual Average (KPAH) Record (KPAH)
Temperature  
Mean Temperature 40 °F -  
Max Temperature 46 °F 46 °F 78 °F (1962)
Min Temperature 35 °F 28 °F 0 °F (1986)
Degree Days  
Heating Degree Days 24    
Moisture  
Dew Point 36 °F    
Average Humidity 84    
Maximum Humidity 100    
Minimum Humidity 65    
Precipitation  
Precipitation 0.14 in - - ()
Sea Level Pressure  
Sea Level Pressure 29.89 in    
Wind  
Wind Speed 6 mph (West)    
Max Wind Speed 12 mph    
Max Gust Speed 17 mph    
Visibility 10 miles    
Events Rain    
Averages and records for this station are not official NWS values.
T = Trace of Precipitation, MM = Missing Value Source: NWS Daily Summary

Daily Weather History Graph

Daily Weather History Graph

Search for Another Location

Airport or City:

Trip Planner

Search our weather history database for the weather conditions in past years. The results will help you decide how hot, cold, wet, or windy it might be!

Date:

Astronomy

Feb. 13, 2013 Rise Set
Actual Time 6:45 AM CST 5:33 PM CST
Civil Twilight 6:19 AM CST 5:59 PM CST
Nautical Twilight 5:48 AM CST 6:30 PM CST
Astronomical Twilight 5:18 AM CST 7:00 PM CST
Moon 8:21 AM CST (2/13) 9:28 PM CST (2/13)
Length of Visible Light 11h 40m
Length of Day
10h 47m
Waxing Crescent, 14% of the Moon is Illuminated
Feb 13
Waxing Crescent
Feb 17
First Quarter
Feb 25
Full
Mar 4
Last Quarter
Mar 11
New

Hourly Weather History & Observations

Time (CST) Temp. Windchill Dew Point Humidity Pressure Visibility Wind Dir Wind Speed Gust Speed Precip Events Conditions
12:15 AM 42.6 °F - 32.5 °F 68% 29.87 in 10.0 mi Calm Calm - N/A   Overcast
12:35 AM 42.4 °F 40.7 °F 33.1 °F 69% 29.86 in 10.0 mi NNE 3.5 mph - N/A Rain Light Rain
12:55 AM 41.9 °F 39.0 °F 34.2 °F 74% 29.86 in 10.0 mi North 4.6 mph - 0.01 in Rain Light Rain
1:15 AM 41.5 °F 38.6 °F 34.3 °F 76% 29.86 in 10.0 mi North 4.6 mph - N/A Rain Light Rain
1:35 AM 41.4 °F 39.4 °F 34.5 °F 77% 29.85 in 10.0 mi North 3.5 mph - 0.01 in Rain Light Rain
1:55 AM 40.6 °F 36.7 °F 34.7 °F 79% 29.85 in 10.0 mi NNW 5.8 mph - 0.01 in Rain Light Rain
2:15 AM 41.0 °F 36.4 °F 34.2 °F 77% 29.86 in 10.0 mi NNW 6.9 mph - N/A   Light Drizzle
2:35 AM 41.0 °F 38.0 °F 34.2 °F 77% 29.86 in 10.0 mi North 4.6 mph - 0.01 in Rain Light Rain
2:55 AM 40.8 °F 36.9 °F 34.0 °F 77% 29.86 in 10.0 mi NNE 5.8 mph - 0.01 in Rain Light Rain
3:15 AM 40.1 °F 36.9 °F 35.2 °F 83% 29.86 in 10.0 mi NNW 4.6 mph - 0.02 in Rain Rain
3:35 AM 40.1 °F 35.3 °F 34.7 °F 81% 29.86 in 7.0 mi North 6.9 mph - 0.03 in Rain Light Rain
3:55 AM 39.9 °F 35.1 °F 34.7 °F 82% 29.85 in 10.0 mi North 6.9 mph - 0.04 in Rain Light Rain
4:15 AM 39.4 °F 33.2 °F 34.9 °F 84% 29.85 in 10.0 mi North 9.2 mph - 0.01 in Rain Light Rain
4:35 AM 39.0 °F 34.0 °F 34.7 °F 84% 29.84 in 10.0 mi North 6.9 mph - 0.01 in Rain Light Rain
4:55 AM 38.5 °F 32.7 °F 34.7 °F 86% 29.84 in 10.0 mi North 8.1 mph - 0.02 in Rain Light Rain
5:15 AM 38.1 °F 32.3 °F 34.7 °F 87% 29.84 in 10.0 mi North 8.1 mph - 0.01 in Rain Rain
5:35 AM 37.8 °F 30.7 °F 35.6 °F 92% 29.84 in 10.0 mi North 10.4 mph - 0.01 in Rain Rain
5:55 AM 37.4 °F 30.3 °F 36.1 °F 95% 29.84 in 10.0 mi North 10.4 mph - 0.01 in Rain Light Rain
6:15 AM 36.9 °F 29.6 °F 36.0 °F 97% 29.86 in 10.0 mi NNW 10.4 mph - N/A Rain Light Rain
6:35 AM 36.7 °F 29.9 °F 36.1 °F 98% 29.86 in 10.0 mi NNW 9.2 mph - 0.01 in Rain Light Rain
6:55 AM 36.5 °F 29.2 °F 36.1 °F 99% 29.87 in 10.0 mi NNW 10.4 mph - 0.01 in Rain Light Rain
7:15 AM 35.8 °F 29.4 °F 35.6 °F 99% 29.87 in 7.0 mi North 8.1 mph - 0.01 in Rain Light Rain
7:35 AM 35.8 °F 30.1 °F 35.8 °F 100% 29.87 in 7.0 mi NNW 6.9 mph - 0.01 in Rain Light Rain
7:55 AM 35.8 °F 30.9 °F 35.8 °F 100% 29.88 in 7.0 mi North 5.8 mph - 0.02 in Rain Light Rain
8:15 AM 36.1 °F 30.6 °F 36.1 °F 100% 29.89 in 7.0 mi North 6.9 mph - N/A Rain Rain
8:35 AM 36.5 °F 31.8 °F 36.5 °F 100% 29.90 in 7.0 mi NNW 5.8 mph - N/A Rain Light Rain
8:55 AM 37.0 °F 31.6 °F 37.0 °F 100% 29.91 in 7.0 mi NNW 6.9 mph - N/A   Drizzle
9:15 AM 37.2 °F 30.0 °F 37.0 °F 99% 29.91 in 5.0 mi NNW 10.4 mph - N/A Rain Rain
9:35 AM 37.0 °F 31.6 °F 36.9 °F 99% 29.93 in 7.0 mi NW 6.9 mph - 0.01 in Rain Rain
9:55 AM 36.9 °F 33.1 °F 36.9 °F 100% 29.93 in 10.0 mi NNW 4.6 mph - 0.01 in Rain Rain
10:15 AM 37.4 °F 32.8 °F 37.2 °F 99% 29.93 in 10.0 mi NW 5.8 mph - N/A   Light Drizzle
10:35 AM 37.9 °F 34.4 °F 37.2 °F 97% 29.94 in 10.0 mi NW 4.6 mph - N/A   Light Drizzle
10:55 AM 38.8 °F 35.4 °F 37.9 °F 97% 29.94 in 10.0 mi NW 4.6 mph - N/A   Overcast
11:15 AM 39.6 °F - 38.3 °F 95% 29.93 in 10.0 mi Calm Calm - N/A   Overcast
11:35 AM 40.3 °F - 37.9 °F 91% 29.93 in 10.0 mi Calm Calm - N/A   Overcast
11:55 AM 41.2 °F - 37.6 °F 87% 29.92 in 10.0 mi Calm Calm - N/A   Overcast
12:15 PM 42.1 °F 40.2 °F 37.6 °F 84% 29.91 in 10.0 mi SSW 3.5 mph - N/A   Overcast
12:35 PM 43.3 °F 38.1 °F 36.0 °F 75% 29.91 in 10.0 mi West 9.2 mph - N/A   Overcast
12:55 PM 43.5 °F 39.4 °F 35.4 °F 73% 29.91 in 10.0 mi WSW 6.9 mph - N/A   Overcast
1:15 PM 44.4 °F 41.2 °F 35.6 °F 71% 29.90 in 10.0 mi West 5.8 mph - N/A   Scattered Clouds
1:35 PM 44.1 °F - 35.2 °F 71% 29.89 in 10.0 mi Calm Calm - N/A   Mostly Cloudy
1:55 PM 45.1 °F 40.3 °F 35.8 °F 70% 29.90 in 10.0 mi WSW 9.2 mph - N/A   Mostly Cloudy
2:15 PM 45.5 °F 39.9 °F 35.4 °F 68% 29.89 in 10.0 mi WSW 11.5 mph - N/A   Scattered Clouds
2:35 PM 45.5 °F 40.8 °F 34.9 °F 66% 29.89 in 10.0 mi SW 9.2 mph - N/A   Scattered Clouds
2:55 PM 46.2 °F 41.7 °F 35.1 °F 65% 29.89 in 10.0 mi WSW 9.2 mph - N/A   Scattered Clouds
3:15 PM 45.9 °F 40.8 °F 34.7 °F 65% 29.89 in 10.0 mi SW 10.4 mph - N/A   Clear
3:35 PM 46.0 °F 41.4 °F 35.1 °F 66% 29.89 in 10.0 mi SW 9.2 mph 17.3 mph N/A   Clear
3:55 PM 45.5 °F 40.3 °F 35.4 °F 68% 29.89 in 10.0 mi SSW 10.4 mph - N/A   Scattered Clouds
4:15 PM 44.8 °F 41.0 °F 35.1 °F 69% 29.89 in 10.0 mi SW 6.9 mph - N/A   Scattered Clouds
4:35 PM 45.3 °F 39.7 °F 34.9 °F 67% 29.89 in 10.0 mi SW 11.5 mph 16.1 mph N/A   Scattered Clouds
4:55 PM 44.2 °F 39.2 °F 34.7 °F 69% 29.90 in 10.0 mi SW 9.2 mph - N/A   Mostly Cloudy
5:15 PM 43.5 °F 39.4 °F 34.7 °F 71% 29.90 in 10.0 mi SW 6.9 mph - N/A   Scattered Clouds
5:35 PM 42.8 °F 38.6 °F 34.7 °F 73% 29.90 in 10.0 mi SW 6.9 mph - N/A   Clear
5:55 PM 42.4 °F 37.0 °F 34.9 °F 75% 29.90 in 10.0 mi SSW 9.2 mph - N/A   Clear
6:15 PM 41.2 °F 36.6 °F 34.7 °F 78% 29.91 in 10.0 mi SSW 6.9 mph - N/A   Clear
6:35 PM 41.4 °F 36.8 °F 35.1 °F 78% 29.91 in 10.0 mi SSW 6.9 mph - N/A   Clear
6:55 PM 40.1 °F 36.1 °F 34.7 °F 81% 29.91 in 10.0 mi SSW 5.8 mph - N/A   Clear
7:15 PM 40.3 °F 34.9 °F 35.4 °F 83% 29.92 in 10.0 mi South 8.1 mph - N/A   Clear
7:35 PM 40.1 °F 36.1 °F 35.4 °F 83% 29.92 in 10.0 mi South 5.8 mph - N/A   Clear
7:55 PM 40.1 °F 35.3 °F 35.6 °F 84% 29.92 in 10.0 mi South 6.9 mph - N/A   Clear
8:15 PM 39.7 °F 34.9 °F 35.6 °F 85% 29.92 in 10.0 mi South 6.9 mph - N/A   Clear
8:35 PM 39.7 °F 35.6 °F 35.6 °F 85% 29.93 in 10.0 mi South 5.8 mph - N/A   Clear
8:55 PM 39.6 °F 33.5 °F 35.8 °F 86% 29.93 in 10.0 mi South 9.2 mph - N/A   Clear
9:15 PM 40.1 °F 34.1 °F 36.5 °F 87% 29.93 in 10.0 mi SSW 9.2 mph - N/A   Clear
9:35 PM 39.6 °F 35.4 °F 36.3 °F 88% 29.93 in 10.0 mi SSW 5.8 mph - N/A   Clear
9:55 PM 39.4 °F 35.2 °F 37.2 °F 92% 29.93 in 10.0 mi SSW 5.8 mph - N/A   Clear
10:15 PM 39.7 °F 34.9 °F 37.6 °F 92% 29.93 in 10.0 mi SSW 6.9 mph - N/A   Clear
10:35 PM 39.0 °F 34.0 °F 37.2 °F 93% 29.94 in 10.0 mi SSW 6.9 mph - N/A   Clear
10:55 PM 39.2 °F 34.2 °F 38.1 °F 96% 29.94 in 10.0 mi SSW 6.9 mph - N/A   Clear
11:15 PM 39.2 °F 35.0 °F 38.1 °F 96% 29.94 in 10.0 mi SSW 5.8 mph - N/A   Clear
11:55 PM 38.3 °F 33.2 °F 37.8 °F 98% 29.95 in 10.0 mi SW 6.9 mph - N/A   Clear